Volver al catálogo

STARLINK-35919

ActivoComunicacionesVLEO
NORAD 66888·PAYLOAD·🇺🇸 United States

Lanzado Dec 4, 2025 desde Vandenberg Space Force Base

Loading…

Próximos Pases (próximas 24 horas)

TLE

ActualizadoSource: CelesTrak SupGP

Época: Sep 15, 2026, 04:08 UTC

1 66888C 25283L   26258.17270833 -.00172640  00000+0 -50995-2 0  2589
2 66888  53.1571 220.8395 0001410  87.6572 141.5541 15.34483759    11

Sigue STARLINK-35919 en tiempo real con AllMySat

Download on the App Store